CW8496 Weather Reports


time (UTC)temp
C
wind
direction
speed
KPH
gust
KPH
rain 1hr
cm
rain 24hr
cm
rain mn
cm
humidity
%
barometer
mb
20260509090018 7 0.0 0.0 0.00 0.00 0.00 88 1032.6
20260509083020 8 0.0 3.2 0.00 0.00 0.00 85 1032.4
20260509080018 8 0.0 3.2 0.00 0.00 0.00 84 1032.0
20260509073037 10 0.0 1.6 0.00 0.00 0.00 79 1032.1
20260509070017 11 0.0 6.4 0.00 0.00 0.00 76 1032.3
20260509063038 12 0.0 8.0 0.00 0.00 0.00 72 1032.7
20260509060017 13 0.0 9.7 0.00 0.00 0.00 70 1032.9
20260509053017 14 0.0 0.0 0.00 0.00 0.00 67 1033.1
20260509050017 15 270 1.6 8.0 0.00 0.00 0.00 65 1033.0
20260509043019 16 293 1.6 6.4 0.00 0.00 0.00 64 1033.3
20260509040117 16 293 3.2 6.4 0.00 0.00 0.00 64 1033.6
20260509033018 15 315 3.2 4.8 0.00 0.00 0.00 67 1033.8
20260509030018 15 293 3.2 6.4 0.00 0.00 0.00 68 1034.3
20260509023017 14 315 3.2 6.4 0.00 0.00 0.00 70 1034.5
20260509020017 13 0 4.8 17.7 0.00 0.00 0.00 69 1035.0
20260509013017 14 0 4.8 12.9 0.00 0.00 0.00 67 1035.2
20260509010016 14 0 3.2 9.7 0.00 0.00 0.00 59 1035.4
20260509003017 13 23 3.2 11.3 0.00 0.00 0.00 62 1035.3
20260509000038 13 113 1.6 9.7 0.00 0.00 0.00 60 1035.3
20260508233018 13 113 1.6 6.4 0.00 0.00 0.00 64 1035.3
20260508230016 12 113 3.2 9.7 0.00 0.00 0.00 70 1035.3
20260508223016 10 68 1.6 4.8 0.00 0.00 0.00 77 1034.8
20260508220018 7 0.0 4.8 0.00 0.00 0.00 90 1033.9
20260508213018 5 0.0 3.2 0.00 0.00 0.00 94 1032.9
20260508210018 4 0.0 0.0 0.00 0.00 0.00 94 1032.4
20260508203018 4 0.0 6.4 0.00 0.00 0.00 94 1032.1
20260508193017 4 0.0 1.6 0.00 0.00 0.00 92 1031.4
20260508190017 5 0.0 4.8 0.00 0.00 0.00 92 1031.4
20260508183038 5 0.0 4.8 0.00 0.00 0.00 91 1031.3
20260508180018 5 0.0 6.4 0.00 0.00 0.00 92 1031.1
20260508173018 5 0.0 3.2 0.00 0.00 0.00 92 1031.2
20260508170018 6 0.0 8.0 0.00 0.00 0.00 92 1031.3
20260508163018 6 0.0 8.0 0.00 0.00 0.00 91 1031.4
20260508160018 6 113 1.6 6.4 0.00 0.00 0.00 91 1032.0
20260508153017 7 0.0 9.7 0.00 0.00 0.00 91 1031.9
20260508150017 7 0 1.6 11.3 0.00 0.00 0.00 91 1031.8
20260508143017 7 270 3.2 11.3 0.00 0.00 0.00 91 1031.9
20260508140019 7 293 3.2 12.9 0.00 0.00 0.00 91 1031.7
20260508133019 7 248 3.2 19.3 0.00 0.00 0.00 91 1031.7
20260508130040 7 158 3.2 12.9 0.00 0.00 0.00 91 1032.4
20260508123018 6 23 3.2 14.5 0.00 0.00 0.00 92 1032.0
20260508120018 6 270 3.2 17.7 0.00 0.00 0.00 92 1031.9
20260508113018 6 248 3.2 17.7 0.00 0.00 0.00 93 1031.7
20260508110018 7 248 1.6 12.9 0.00 0.00 0.00 92 1031.9
20260508103018 7 315 3.2 12.9 0.00 0.00 0.00 93 1032.2
20260508100038 7 270 3.2 17.7 0.00 0.00 0.00 94 1031.6
20260508093018 6 270 3.2 17.7 0.00 0.00 0.00 94 1031.3